Flag for Vietnam Weather past 2 weeks in Hanoi, Vietnam

Now
64 °F

Drizzle. Broken clouds.


Feels Like: 64 °F
Forecast: 65 / 74 °F
Wind: 14 mph from Northeast

Location: Ha Noi Airport

Current Time: Mar 6, 2015 at 4:29:14 PM

Latest Report: Mar 6, 2015 at 4:00 PM


Visibility: N/A

Pressure: 29.89 "Hg

Humidity: 88%

Dew point: 61 °F

Location of HanoiLocation

Historic Weather in Hanoi — Graph

°F

Hanoi temperature yesterday

Maximum temperature yesterday: 70 °F (at 12:00 PM)
Minimum temperature yesterday: 64 °F (at 12:00 AM)
Average temperature yesterday: 67 °F

Past Weeks' High & Low Weather Summary

 TemperatureHumidityPressure
High84 °F (Feb 24, 1:30 PM)100% (Feb 22, 8:30 AM)30.12 "Hg (Feb 22, 8:30 AM)
Low63 °F (Mar 2, 4:00 AM)54% (Mar 3, 3:30 PM)29.71 "Hg (Feb 24, 4:00 PM)
Average72 °F83%29.87 "Hg
* Reported Feb 19 3:00 PM — Mar 6 3:30 PM, Hanoi, Weather by CustomWeather, © 2015

Note: Actual official high and low records may vary slightly from our data, if they occured in-between our weather recording intervals... More about our weather records

Advertising

Hanoi weather history for previous 24 hours

 ConditionsComfort  
Time TempWeatherWind HumidityBarometerVisibility
3:30 PM
Fri, Mar 6
64 °FBroken clouds.12 mph88%29.89 "HgN/A
3:00 PM64 °FBroken clouds.13 mph88%29.89 "HgN/A
2:30 PM64 °FCloudy.13 mph88%29.89 "HgN/A
2:00 PM64 °FDrizzle. Broken clouds.12 mph94%29.92 "Hg4 mi
1:30 PM64 °FBroken clouds.13 mph94%29.92 "Hg4 mi
1:00 PM64 °FBroken clouds.12 mph94%29.95 "Hg6 mi
12:30 PM64 °FBroken clouds.8 mph94%29.95 "Hg4 mi
12:00 PM64 °FDrizzle. Broken clouds.10 mph94%29.98 "Hg3 mi
11:30 AM64 °FDrizzle. Fog.14 mph88%29.98 "Hg3 mi
11:00 AM64 °FDrizzle. Broken clouds.14 mph94%30.01 "Hg5 mi
10:30 AM64 °FDrizzle. Broken clouds.10 mph94%30.01 "Hg4 mi
10:00 AM64 °FDrizzle. Broken clouds.9 mph94%30.01 "Hg6 mi
9:30 AM64 °FBroken clouds.8 mph94%30.01 "Hg6 mi
9:00 AM64 °FBroken clouds.9 mph94%29.98 "HgN/A
8:30 AM64 °FBroken clouds.7 mph94%29.98 "Hg4 mi
8:00 AM66 °FDrizzle. Broken clouds.8 mph94%29.95 "Hg3 mi
7:30 AM66 °FDrizzle. Fog.9 mph94%29.95 "Hg1 mi
7:00 AM66 °FDrizzle. Fog.6 mph94%29.95 "Hg2 mi
6:30 AM66 °FDrizzle. Fog.7 mph100%29.92 "Hg1 mi
6:00 AM68 °FDrizzle. Fog.5 mph94%29.92 "Hg2 mi
5:30 AM68 °FDrizzle. Fog.5 mph94%29.89 "Hg2 mi
5:00 AM68 °FDrizzle. Fog.2 mph94%29.89 "Hg3 mi
4:30 AM68 °FPartly cloudy.3 mph100%29.86 "Hg5 mi
3:30 AM68 °FDrizzle. Fog.2 mph100%29.86 "Hg1 mi
3:00 AM68 °FDrizzle. Fog.3 mph100%29.86 "Hg1 mi
2:30 AM68 °FDrizzle. Fog.No wind100%29.86 "Hg1 mi
2:00 AM68 °FDrizzle. Fog.No wind100%29.89 "Hg1 mi
1:30 AM70 °FDrizzle. Fog.2 mph94%29.89 "Hg1 mi
1:00 AM68 °FDrizzle. Fog.2 mph100%29.89 "Hg1 mi
12:30 AM68 °FDrizzle. Fog.2 mph100%29.89 "Hg1 mi
12:00 AM68 °FDrizzle. Fog.No wind100%29.89 "Hg1 mi
11:30 PM
Thu, Mar 5
68 °FDrizzle. Fog.No wind100%29.89 "Hg1 mi
11:00 PM68 °FDrizzle. Fog.1 mph100%29.92 "Hg1 mi
10:30 PM68 °FDrizzle. Fog.1 mph100%29.89 "Hg1 mi
10:00 PM68 °FDrizzle. Fog.1 mph100%29.89 "Hg1 mi
9:30 PM68 °FDrizzle. Fog.2 mph94%29.89 "Hg1 mi
9:00 PM68 °FDrizzle. Fog.3 mph94%29.89 "Hg1 mi
8:30 PM68 °FDrizzle. Fog.2 mph94%29.86 "Hg1 mi
8:00 PM68 °FDrizzle. Fog.3 mph94%29.86 "Hg1 mi
7:30 PM68 °FDrizzle. Fog.6 mph94%29.86 "Hg1 mi
7:00 PM68 °FDrizzle. Fog.5 mph94%29.83 "Hg1 mi
6:30 PM68 °FDrizzle. Fog.5 mph94%29.83 "Hg1 mi
6:00 PM68 °FDrizzle. Fog.5 mph94%29.83 "Hg1 mi
5:30 PM68 °FDrizzle. Fog.6 mph94%29.80 "Hg1 mi
5:00 PM68 °FDrizzle. Fog.7 mph94%29.80 "Hg1 mi
4:30 PM68 °FDrizzle. Fog.6 mph94%29.80 "Hg1 mi
4:00 PM70 °FDrizzle. Fog.7 mph88%29.80 "Hg2 mi
Weather by CustomWeather, © 2015

See weather overviewHow to use our weather pages